EW2642 Weather Reports


Display with metric or nautical units.
time (UTC)temp
F
wind
direction
speed
MPH
gust
MPH
rain 1hr
in
rain 24hr
in
rain mn
in
humidity
%
barometer
mb
20260904111513 60 103 0.0 1.0 0.00 0.00 0.00 82 850.3
20260904110012 60 103 0.0 2.0 0.00 0.00 0.00 81 850.2
20260904104511 61 117 1.0 3.0 0.00 0.00 0.00 80 850.1
20260904103014 61 146 1.0 7.0 0.00 0.00 0.00 79 850.0
20260904101521 62 129 2.0 5.0 0.00 0.00 0.00 77 849.9
20260904100016 62 159 3.0 7.0 0.00 0.00 0.00 80 849.8
20260904094516 62 158 1.0 6.0 0.00 0.00 0.00 80 849.8
20260904093016 62 151 2.0 4.0 0.00 0.00 0.00 77 849.8
20260904091519 64 144 2.0 6.0 0.00 0.00 0.00 75 849.8
20260904090022 65 103 2.0 5.0 0.00 0.00 0.00 73 849.9
20260904084521 64 194 5.0 10.0 0.00 0.00 0.00 75 849.9
20260904083020 65 151 1.0 4.0 0.00 0.00 0.00 74 849.9
20260904081519 66 109 3.0 8.0 0.00 0.00 0.00 70 850.0
20260904080019 68 172 1.0 9.0 0.00 0.00 0.00 67 850.0
20260904074522 69 197 6.0 10.0 0.00 0.00 0.00 66 850.0
20260904073018 69 201 5.0 8.0 0.00 0.00 0.00 66 850.0
20260904071520 69 175 6.0 8.0 0.00 0.00 0.00 66 850.0
20260904070019 69 185 6.0 9.0 0.00 0.00 0.00 67 850.0
20260904064519 68 191 3.0 6.0 0.00 0.00 0.00 68 850.0
20260904063021 67 153 4.0 7.0 0.00 0.00 0.00 69 850.0
20260904061519 67 173 2.0 6.0 0.00 0.00 0.00 68 849.9
20260904060018 67 126 4.0 7.0 0.00 0.00 0.00 67 849.9
20260904054531 69 164 1.0 6.0 0.00 0.00 0.00 64 849.8
20260904053026 70 161 3.0 6.0 0.00 0.00 0.00 62 849.9
20260904051520 70 165 4.0 9.0 0.00 0.00 0.00 62 849.8
20260904050019 68 178 5.0 8.0 0.00 0.00 0.00 63 849.9
20260904044527 67 159 3.0 5.0 0.00 0.00 0.00 66 850.0
20260904043024 66 167 3.0 5.0 0.00 0.00 0.00 67 849.9
20260904041522 66 151 2.0 5.0 0.00 0.00 0.00 66 849.8
20260904040018 67 163 3.0 5.0 0.00 0.00 0.00 65 849.7
20260904034520 67 158 3.0 5.0 0.00 0.00 0.00 63 849.7
20260904033029 68 148 3.0 5.0 0.00 0.00 0.00 62 849.7
20260904031520 70 146 2.0 5.0 0.00 0.00 0.00 59 849.5
20260904030045 71 146 2.0 3.0 0.00 0.00 0.00 55 849.3
20260904024518 73 161 2.0 6.0 0.00 0.00 0.00 52 849.2
20260904023030 74 175 5.0 9.0 0.00 0.00 0.00 49 849.1
20260904021528 75 191 5.0 7.0 0.00 0.00 0.00 47 849.0
20260904020018 77 175 4.0 11.0 0.00 0.00 0.00 45 849.0
20260904014521 78 176 6.0 12.0 0.00 0.00 0.00 43 849.0
20260904013021 79 166 8.0 13.0 0.00 0.00 0.00 42 848.9
20260904011522 79 171 7.0 12.0 0.00 0.00 0.00 40 848.9
20260904010020 80 217 8.0 12.0 0.00 0.00 0.00 39 849.0
20260904004526 80 186 13.0 21.0 0.00 0.00 0.00 37 849.1
20260904003022 81 241 9.0 19.0 0.00 0.00 0.00 38 849.1
20260904001523 82 240 9.0 16.0 0.00 0.00 0.00 34 849.1
20260904000034 82 164 9.0 15.0 0.00 0.00 0.00 36 849.1
20260903234523 82 182 10.0 20.0 0.00 0.00 0.00 35 849.1
20260903233031 83 165 12.0 22.0 0.00 0.00 0.00 34 849.1
20260903231539 83 172 11.0 19.0 0.00 0.00 0.00 35 849.2
20260903230024 83 152 14.0 22.0 0.00 0.00 0.00 33 849.4
20260903224530 84 190 16.0 23.0 0.00 0.00 0.00 33 849.5
20260903223018 84 153 12.0 23.0 0.00 0.00 0.00 32 849.7
20260903221520 84 250 13.0 19.0 0.00 0.00 0.00 35 849.9
20260903220021 84 209 11.0 18.0 0.00 0.00 0.00 33 850.1
20260903214523 84 189 10.0 19.0 0.00 0.00 0.00 34 850.2
20260903213023 83 222 12.0 21.0 0.00 0.00 0.00 34 850.3
20260903211528 83 162 15.0 28.0 0.00 0.00 0.00 34 850.4
20260903210024 83 227 12.0 23.0 0.00 0.00 0.00 34 850.4
20260903204523 83 166 13.0 22.0 0.00 0.00 0.00 33 850.6
20260903203024 83 197 11.0 25.0 0.00 0.00 0.00 34 850.5
20260903201523 83 171 16.0 27.0 0.00 0.00 0.00 34 850.6
20260903200023 82 174 15.0 28.0 0.00 0.00 0.00 34 850.6
20260903194532 83 246 14.0 27.0 0.00 0.00 0.00 33 850.8
20260903193023 82 172 12.0 25.0 0.00 0.00 0.00 32 850.8
20260903191530 82 205 9.0 23.0 0.00 0.00 0.00 34 851.0
20260903190024 82 222 12.0 21.0 0.00 0.00 0.00 34 851.0
20260903184522 81 202 13.0 25.0 0.00 0.00 0.00 34 851.2
20260903183023 81 150 13.0 29.0 0.00 0.00 0.00 35 851.5
20260903181522 81 178 9.0 22.0 0.00 0.00 0.00 35 851.7
20260903180024 80 168 13.0 21.0 0.00 0.00 0.00 36 851.8
20260903174523 80 184 12.0 21.0 0.00 0.00 0.00 37 852.0
20260903173026 79 159 12.0 26.0 0.00 0.00 0.00 37 852.0
20260903171523 79 194 13.0 22.0 0.00 0.00 0.00 38 851.9
20260903170035 79 172 13.0 28.0 0.00 0.00 0.00 38 851.8
20260903164526 78 210 11.0 24.0 0.00 0.00 0.00 39 851.7
20260903163034 78 194 11.0 20.0 0.00 0.00 0.00 39 851.7
20260903161522 77 180 5.0 13.0 0.00 0.00 0.00 40 851.9
20260903160023 75 126 8.0 15.0 0.00 0.00 0.00 42 851.8
20260903154524 74 114 9.0 15.0 0.00 0.00 0.00 42 852.0
20260903153023 73 140 11.0 15.0 0.00 0.00 0.00 42 852.1
20260903151538 71 130 9.0 13.0 0.00 0.00 0.00 44 852.1
20260903150038 70 127 8.0 11.0 0.00 0.00 0.00 45 852.2
20260903144524 68 115 6.0 9.0 0.00 0.00 0.00 48 852.1
20260903143033 65 126 3.0 6.0 0.00 0.00 0.00 53 852.2
20260903141523 62 144 2.0 5.0 0.00 0.00 0.00 56 852.1
20260903140024 59 137 2.0 4.0 0.00 0.00 0.00 64 852.0
20260903134525 58 151 2.0 6.0 0.00 0.00 0.00 65 851.9
20260903133025 57 121 4.0 6.0 0.00 0.00 0.00 63 851.5
20260903131537 58 142 2.0 5.0 0.00 0.00 0.00 61 851.4
20260903130027 59 175 4.0 7.0 0.00 0.00 0.00 59 851.4
20260903124524 60 190 2.0 6.0 0.00 0.00 0.00 55 851.0
20260903123026 61 171 4.0 8.0 0.00 0.00 0.00 57 851.1
20260903121525 62 190 3.0 6.0 0.00 0.00 0.00 52 851.1
20260903120024 60 191 3.0 7.0 0.00 0.00 0.00 57 851.1
20260903114527 58 181 4.0 8.0 0.00 0.00 0.00 58 851.0
20260903113025 57 198 5.0 9.0 0.00 0.00 0.00 59 851.1